RH
29 36 42 34 34 31 33 36 37 29 23 25 24 24 20 18 20 20 20 18 16 14 13 12 12 11 14 14 17 56 83 94 97 97 96 93 94 94 94 89 90 88 86 89
37 43 32 28 28 31 32 36 35 28 24 23 23 23 20 20 20 19 19 21 18 16 14 13 12 13 16 17 27 75 82 88 92 87 91 87 90 85 80 94 92 90 89 80
45 36 28 30 31 34 34 36 36 34 29 26 28 31 29 26 27 24 22 28 57 57 25 15 13 16 15 22 64 82 87 86 93 92 96 90 90 88 88 94 95 93 89 91
37 28 31 33 34 29 36 30 31 34 36 42 35 55 34 32 28 25 25 71 69 69 70 38 45 50 49 29 50 80 87 92 95 92 93 87 90 94 94 98 97 92 94 94
37 29 29 30 30 26 31 29 33 34 43 48 39 54 34 44 83 80 72 72 74 72 70 76 80 80 79 60 70 81 92 97 99 92 87 91 93 89 93 94 93 84 80 89
30 23 24 27 23 24 25 32 41 42 51 64 42 50 57 87 89 72 73 74 78 77 75 75 79 82 84 80 84 87 92 98 98 93 91 88 93 92 94 93 89 86 90 95
34 32 26 24 28 24 28 48 70 75 69 72 38 51 53 81 74 70 72 83 82 81 79 80 79 84 88 96 88 89 92 94 94 91 90 88 82 86 84 88 89 100 100 100
36 40 26 34 31 32 41 47 73 82 70 47 41 60 76 74 67 64 79 78 81 85 79 80 80 83 89 96 81 91 91 92 93 90 92 84 79 83 82 81 86 99 97 84
57 60 36 38 38 31 42 55 40 61 54 73 56 72 72 65 66 74 85 81 81 79 80 79 81 84 91 97 100 93 90 90 93 92 86 79 77 77 80 80 84 88 85 84
39 50 51 42 36 36 40 43 56 82 81 84 59 53 78 75 72 68 81 87 82 79 79 78 81 86 93 98 100 100 95 90 93 92 85 82 80 74 74 77 87 88 83 89
44 60 52 36 47 49 48 58 71 67 79 83 87 80 83 80 76 78 77 82 86 84 82 81 82 86 93 97 99 100 100 99 97 94 87 82 84 82 74 79 83 79 84 98
56 65 78 48 37 34 37 67 88 99 90 81 80 68 71 75 71 76 82 79 82 84 82 81 81 84 90 94 97 100 100 100 98 97 88 80 75 77 82 83 78 81 90 97
45 64 77 38 38 55 63 53 59 81 95 98 95 78 70 77 78 77 81 85 83 83 83 82 82 85 88 93 97 99 100 100 100 98 91 82 82 82 79 75 80 90 92 99
50 64 62 73 60 58 62 46 42 68 97 94 84 92 77 86 91 86 83 86 84 84 86 84 86 87 89 92 96 98 100 100 100 100 100 94 90 92 94 93 95 100 100 100
59 73 65 66 61 57 59 58 47 48 59 94 83 93 95 90 88 84 77 78 84 88 91 94 90 90 91 94 95 99 100 100 100 100 100 100 100 97 98 99 100 100 100 100
69 76 65 52 51 53 60 60 51 44 41 49 61 84 94 96 81 84 84 85 90 91 94 94 95 95 95 97 98 99 100 100 100 100 100 100 100 100 100 100 100 100 100 100
67 79 89 65 58 64 70 68 53 41 53 72 84 94 95 98 95 96 93 89 92 94 95 95 95 95 98 99 100 100 100 100 100 100 100 100 100 100 100 100 100 100 100 100
78 79 85 87 74 98 60 80 67 91 98 98 98 96 94 95 94 91 90 95 96 96 98 98 97 98 100 100 100 100 100 100 100 100 100 100 100 100 100 100 100 100 100 99
54 67 95 97 89 61 52 95 97 95 99 97 98 87 94 88 83 95 89 91 98 100 100 99 100 100 100 100 99 100 100 100 100 100 100 100 98 99 100 100 100 100 100 100
68 63 92 93 95 97 96 84 86 100 97 100 88 85 86 90 98 95 93 94 99 99 100 99 100 100 100 100 98 99 99 99 100 100 100 100 100 99 96 99 100 100 99 100
90 95 91 92 93 86 96 96 98 96 98 85 81 83 84 92 92 96 98 99 99 99 99 100 99 100 100 99 97 99 99 99 99 98 100 100 100 100 99 98 100 98 100 96
91 94 93 92 96 95 87 79 94 100 98 80 81 82 84 92 94 97 97 98 98 98 97 98 99 100 100 98 98 99 98 98 98 97 97 98 99 98 99 98 97 98 97 98
96 98 98 96 97 100 99 100 100 100 95 93 88 89 86 90 96 97 97 97 98 98 96 99 95 95 100 100 98 99 98 97 97 96 97 97 97 98 98 97 97 98 96 96
76 94 98 96 96 94 99 100 97 96 91 87 85 90 90 96 96 97 96 96 96 99 98 96 92 95 98 99 99 92 93 97 96 96 96 97 96 96 97 96 96 96 96 97
85 82 94 96 96 94 93 97 97 91 91 90 90 87 93 93 97 94 95 96 98 98 99 99 99 99 100 98 98 98 98 95 95 96 96 96 98 98 98 97 97 98 96 95
89 95 97 100 89 94 99 95 93 96 92 86 80 88 90 92 96 95 97 97 97 98 98 98 99 98 100 98 97 97 98 97 97 93 89 90 93 95 96 97 100 100 99 99
Wind_Speed
3 3 8 10 9 6 8 9 14 15 11 5 8 13 17 13 10 14 13 16 16 18 15 19 25 26 30 35 29 34 37 36 39 38 35 32 33 30 28 27 27 27 26 26
1 10 14 11 10 10 10 13 17 16 13 6 15 21 20 12 10 16 18 16 18 21 19 19 18 23 24 26 30 37 42 45 44 41 34 29 34 31 28 27 25 26 27 27
9 11 11 13 13 11 10 9 6 11 8 7 5 17 16 7 8 12 15 8 13 16 21 21 17 15 26 19 31 37 42 46 38 37 33 25 29 23 22 26 26 26 25 27
8 14 14 13 9 14 12 8 7 7 5 10 4 11 7 8 16 17 12 10 12 18 23 12 9 10 16 18 33 40 42 41 39 42 33 37 32 24 19 21 27 24 23 25
7 4 4 5 4 4 7 6 5 5 5 6 16 5 4 9 10 19 19 15 15 16 17 18 16 15 19 8 29 36 39 38 38 40 39 35 25 22 24 24 26 25 24 22
8 4 4 6 6 5 1 2 4 3 0 9 18 7 2 2 6 16 18 19 15 17 18 18 19 21 23 16 15 26 34 33 35 37 38 36 32 29 27 27 27 26 25 24
5 6 4 5 8 3 4 5 3 4 0 6 4 4 5 4 12 11 13 15 16 16 16 18 19 18 20 20 11 21 27 29 37 38 36 35 34 33 30 31 28 21 21 23
2 5 5 9 4 10 8 8 5 6 4 10 8 6 2 5 8 10 8 9 17 22 16 16 16 15 20 24 9 23 20 17 30 34 31 35 33 31 29 30 27 23 26 24
4 4 11 6 8 2 4 5 9 5 7 6 4 2 2 5 5 5 9 11 12 13 16 16 17 18 23 25 23 11 29 32 29 31 36 35 32 30 28 26 25 26 25 24
4 5 3 8 7 6 5 1 1 2 3 5 4 4 2 6 8 9 7 9 9 10 14 16 16 18 24 24 24 19 4 18 26 31 35 33 31 30 28 27 27 25 21 22
4 1 3 6 5 7 9 6 5 4 4 4 4 4 4 7 6 6 5 9 11 14 14 14 15 21 23 25 26 18 26 14 11 18 28 29 28 28 29 26 26 21 19 20
3 3 4 4 11 13 9 5 3 3 5 4 4 9 6 8 5 9 9 9 8 10 12 13 14 19 22 25 28 29 28 21 9 11 26 28 28 27 27 24 19 17 19 19
1 3 4 10 4 6 5 7 9 9 8 4 3 5 4 4 10 10 9 9 10 11 12 14 15 16 20 25 26 25 22 19 8 9 24 27 24 22 20 18 16 18 16 15
1 3 4 4 9 9 14 15 10 5 4 8 9 12 11 10 9 7 9 7 9 11 13 13 13 14 19 22 24 26 25 26 18 10 22 28 25 21 19 18 16 14 14 15
3 2 1 6 11 14 16 15 15 13 13 8 10 16 8 7 10 9 9 9 12 15 16 15 14 12 17 20 21 24 25 28 25 18 14 23 26 25 23 22 19 17 17 13
4 3 3 14 12 14 16 16 17 15 15 15 17 11 4 12 11 11 10 10 12 13 14 14 14 15 17 21 20 21 25 28 26 24 23 19 22 23 24 25 23 22 17 14
5 3 2 8 6 12 11 9 15 13 7 9 10 3 8 7 13 12 10 11 11 12 12 13 13 14 18 22 22 21 21 25 30 26 25 24 23 21 19 22 24 24 20 17
5 6 4 4 7 4 1 16 10 11 8 3 10 5 9 11 12 10 11 9 10 10 9 9 10 15 18 23 27 22 21 24 24 26 26 27 27 25 23 24 24 24 23 22
14 6 3 2 3 11 8 7 5 2 6 7 8 3 9 12 10 11 9 9 8 8 8 12 15 14 18 24 25 24 24 22 25 23 22 26 27 27 27 27 27 23 26 26
5 10 6 2 3 3 3 12 11 3 3 7 5 4 0 10 1 2 6 7 7 11 12 13 15 17 21 22 23 23 24 24 25 23 23 27 29 27 31 25 25 27 29 29
3 4 7 5 4 3 12 18 11 3 3 7 8 11 8 5 5 5 4 6 11 13 14 15 15 18 19 23 24 22 22 22 23 24 25 28 29 27 28 28 24 29 27 32
2 3 3 4 1 2 18 6 6 4 7 9 11 10 13 11 10 8 8 7 9 12 17 19 19 20 20 19 19 20 20 19 21 23 24 27 27 28 26 28 26 21 25 22
4 5 2 5 3 4 4 6 8 8 9 9 10 8 9 9 7 8 8 9 11 15 14 16 16 17 22 22 20 17 16 16 20 23 24 25 25 26 24 27 25 19 22 20
7 9 2 2 4 8 9 7 10 9 10 11 10 9 9 9 7 8 7 8 11 15 16 15 16 18 19 22 22 18 17 15 16 19 21 23 26 25 25 25 22 21 20 18
3 7 6 3 6 6 9 9 7 9 10 12 12 11 9 9 8 8 8 8 12 15 17 17 15 16 18 21 22 19 13 15 17 16 16 18 21 24 27 29 25 25 21 19
4 3 3 1 6 4 4 6 8 8 10 8 11 12 11 11 8 9 7 12 13 14 16 16 17 18 19 21 21 19 16 15 14 13 15 16 17 17 19 21 25 25 23 21
Wind_Direction
187 146 223 227 211 221 237 273 273 275 274 253 257 273 284 284 286 289 289 290 284 277 265 252 257 262 256 241 213 194 183 186 178 180 178 176 182 184 183 192 195 200 200 201
39 223 229 230 232 226 236 253 268 281 270 256 293 284 282 271 260 268 275 282 280 279 278 267 251 256 250 230 201 179 183 187 187 185 184 177 180 188 192 198 200 203 204 207
212 238 230 222 245 250 243 233 236 273 292 269 279 285 286 278 283 280 279 307 352 334 287 264 251 234 244 215 181 178 180 187 182 175 173 173 171 172 184 198 205 207 206 205
235 239 238 245 231 234 251 253 287 280 308 292 122 289 302 287 296 295 291 19 1 357 356 350 355 350 326 219 195 183 182 178 179 177 172 173 172 168 191 194 203 201 202 205
240 291 282 277 231 213 244 211 258 289 270 320 284 248 303 347 3 8 3 0 346 14 351 349 346 343 342 271 187 184 177 174 174 173 180 171 165 175 178 194 199 204 211 214
238 222 216 241 272 239 296 22 338 279 218 277 279 207 354 45 358 4 346 343 347 16 349 345 344 354 353 4 189 177 174 173 167 174 178 175 169 168 171 184 198 204 211 212
303 270 261 239 266 251 181 75 326 320 342 237 317 331 266 318 323 332 334 329 343 9 349 343 347 359 351 338 298 185 178 165 172 176 177 176 179 175 174 182 192 193 201 203
280 328 18 353 253 213 187 161 169 243 241 287 311 264 1 340 317 301 310 1 1 348 352 344 338 358 352 343 276 170 187 169 168 172 170 175 179 176 178 187 193 197 203 201
0 262 324 42 340 210 212 152 215 253 269 286 246 107 183 338 323 25 342 26 16 337 337 339 347 1 356 354 360 196 173 180 172 168 170 177 179 177 182 189 195 202 203 207
352 297 339 311 325 23 354 49 290 356 278 250 258 269 236 322 324 348 358 10 9 352 353 352 357 356 357 357 357 32 150 179 171 163 169 174 177 175 183 189 194 202 203 209
2 169 305 9 15 358 345 335 333 281 174 245 288 256 214 240 240 288 48 26 11 7 359 356 357 359 358 3 6 12 39 82 139 168 166 171 172 178 180 186 195 195 204 207
346 273 287 271 288 277 277 346 32 279 327 299 260 269 199 237 350 76 40 26 18 17 8 1 3 4 7 7 6 15 30 27 105 163 162 161 159 165 174 184 185 191 196 203
350 349 334 324 338 18 62 358 341 306 252 226 259 286 216 100 80 62 43 19 18 18 15 11 9 12 7 9 8 12 21 21 37 168 153 148 148 157 162 166 180 183 185 194
109 194 193 244 278 290 298 303 300 299 287 319 286 301 318 130 109 71 61 36 18 18 20 21 15 12 9 8 11 10 10 15 28 56 119 127 136 147 149 147 154 164 169 172
86 241 181 282 280 282 276 281 276 260 265 258 302 305 1 109 95 71 55 42 25 17 19 19 16 12 10 10 14 15 16 22 26 47 65 103 127 134 139 141 144 144 147 144
359 213 348 297 290 273 270 281 258 259 262 265 279 261 57 49 58 53 36 38 36 23 15 12 16 14 10 6 7 20 18 25 35 35 46 69 112 124 131 136 135 132 132 132
184 177 123 270 292 311 279 246 229 242 287 274 246 121 156 104 63 27 24 34 37 29 18 10 14 21 16 5 3 11 25 39 41 43 43 52 68 84 94 123 126 121 120 120
192 162 180 286 311 255 32 26 47 57 36 13 79 89 96 95 84 56 30 30 34 32 22 15 10 20 22 23 13 18 25 45 49 45 47 51 55 59 67 80 88 106 114 109
203 169 228 226 227 297 305 36 25 318 58 15 56 63 118 127 107 55 36 38 33 28 25 25 21 24 34 36 33 27 29 36 47 47 49 62 73 66 64 66 75 74 86 88
173 191 173 192 271 272 337 334 336 190 111 12 49 2 236 168 130 45 36 44 39 43 32 37 29 34 36 34 49 39 38 36 38 39 53 72 80 81 81 76 75 82 81 76
80 126 206 215 237 281 355 328 315 157 80 58 67 40 61 82 71 104 89 67 58 49 47 43 41 39 38 42 46 43 40 38 49 53 60 76 77 75 85 84 78 85 81 87
43 271 187 207 178 270 0 357 41 37 75 79 77 84 92 89 85 70 57 60 63 56 43 40 43 31 32 42 46 45 43 56 67 74 74 71 80 82 81 81 81 75 86 81
40 350 25 28 72 35 15 39 39 36 76 87 93 84 93 92 66 53 52 42 40 52 54 50 48 42 36 38 45 46 44 55 70 72 72 80 84 87 88 84 81 77 80 77
357 10 41 145 50 52 38 60 47 56 77 77 82 92 88 90 78 64 50 44 48 46 44 44 46 42 32 39 49 55 48 51 62 67 68 71 77 80 83 84 87 84 77 79
341 323 345 87 135 123 57 33 64 72 68 76 74 83 81 78 62 72 64 51 51 55 50 45 42 43 35 43 49 56 61 63 63 65 69 71 72 74 72 70 70 75 78 93
346 349 347 18 336 95 64 61 46 70 86 89 90 87 81 87 77 66 67 68 63 58 57 52 46 45 45 53 53 55 66 78 76 76 74 79 80 79 81 83 78 72 78 80